Time,TemperatureF,DewpointF,PressureIn,WindDirection,WindDirectionDegrees,WindSpeedMPH,WindSpeedGustMPH,Humidity,HourlyPrecipIn,Conditions,Clouds,dailyrainin,SoftwareType,DateUTC
2013-10-03 00:01:00,80.8,77.5,29.79,NW,315,1.0,2.0,90,0.00,,,0.00,meteohub,2013-10-03 04:01:00,
2013-10-03 00:02:00,80.8,77.5,29.79,NW,315,1.0,2.0,90,0.00,,,0.00,meteohub,2013-10-03 04:02:00,
2013-10-03 00:07:00,80.8,77.5,29.79,NW,315,1.0,2.0,90,0.00,,,0.00,meteohub,2013-10-03 04:07:00,
2013-10-03 00:12:00,80.6,77.0,29.79,SW,225,2.0,2.0,89,0.00,,,0.00,meteohub,2013-10-03 04:12:00,
2013-10-03 00:17:00,80.8,77.5,29.78,South,180,1.0,2.0,90,0.00,,,0.00,meteohub,2013-10-03 04:17:00,
2013-10-03 00:22:00,80.8,77.5,29.79,South,180,1.0,3.0,90,0.00,,,0.00,meteohub,2013-10-03 04:22:00,
2013-10-03 00:27:00,80.6,77.4,29.79,West,270,2.0,3.0,90,0.00,,,0.00,meteohub,2013-10-03 04:27:00,
2013-10-03 00:32:00,80.6,77.4,29.79,SE,135,1.0,4.0,90,0.00,,,0.00,meteohub,2013-10-03 04:32:00,
2013-10-03 00:37:00,80.6,77.4,29.79,SE,135,3.0,4.0,90,0.00,,,0.00,meteohub,2013-10-03 04:37:00,
2013-10-03 00:42:00,80.6,77.4,29.78,South,180,1.0,4.0,90,0.00,,,0.00,meteohub,2013-10-03 04:42:00,
2013-10-03 00:47:00,80.4,77.5,29.78,South,180,0.0,4.0,91,0.00,,,0.00,meteohub,2013-10-03 04:47:00,
2013-10-03 00:52:00,80.2,77.4,29.78,South,180,1.0,4.0,91,0.00,,,0.00,meteohub,2013-10-03 04:52:00,
2013-10-03 00:57:00,80.2,77.4,29.79,North,0,3.0,4.0,91,0.00,,,0.00,meteohub,2013-10-03 04:57:00,
2013-10-03 01:02:00,80.4,77.5,29.78,SE,135,1.0,5.0,91,0.00,,,0.00,meteohub,2013-10-03 05:02:00,
2013-10-03 01:07:00,80.4,77.9,29.78,SE,135,1.0,5.0,92,0.00,,,0.00,meteohub,2013-10-03 05:07:00,
2013-10-03 01:12:00,80.4,77.9,29.78,South,180,0.0,5.0,92,0.00,,,0.00,meteohub,2013-10-03 05:12:00,
2013-10-03 01:17:00,80.4,77.9,29.78,South,180,2.0,2.0,92,0.00,,,0.00,meteohub,2013-10-03 05:17:00,
2013-10-03 01:22:00,80.4,77.9,29.78,South,180,1.0,2.0,92,0.00,,,0.00,meteohub,2013-10-03 05:22:00,
2013-10-03 01:27:00,80.4,77.9,29.78,SE,135,0.0,2.0,92,0.00,,,0.00,meteohub,2013-10-03 05:27:00,
2013-10-03 01:32:00,80.4,77.9,29.78,SSE,158,1.0,2.0,92,0.00,,,0.00,meteohub,2013-10-03 05:32:00,
2013-10-03 01:37:00,80.4,78.3,29.77,South,180,2.0,2.0,93,0.00,,,0.00,meteohub,2013-10-03 05:37:00,
2013-10-03 01:42:00,80.4,78.3,29.78,South,180,2.0,3.0,93,0.00,,,0.00,meteohub,2013-10-03 05:42:00,
2013-10-03 01:47:00,80.4,77.9,29.78,SE,135,1.0,3.0,92,0.00,,,0.00,meteohub,2013-10-03 05:47:00,
2013-10-03 01:52:00,80.4,77.9,29.78,West,270,1.0,3.0,92,0.00,,,0.00,meteohub,2013-10-03 05:52:00,
2013-10-03 01:57:00,80.4,77.9,29.78,South,180,0.0,4.0,92,0.00,,,0.00,meteohub,2013-10-03 05:57:00,
2013-10-03 02:02:00,80.4,78.3,29.77,East,90,2.0,4.0,93,0.00,,,0.00,meteohub,2013-10-03 06:02:00,
2013-10-03 02:07:00,80.4,78.3,29.77,East,90,2.0,3.0,93,0.00,,,0.00,meteohub,2013-10-03 06:07:00,
2013-10-03 02:12:00,80.2,77.7,29.78,South,180,0.0,2.0,92,0.00,,,0.00,meteohub,2013-10-03 06:12:00,
2013-10-03 02:17:00,80.1,77.5,29.77,South,180,1.0,3.0,92,0.00,,,0.00,meteohub,2013-10-03 06:17:00,
2013-10-03 02:22:00,80.1,77.5,29.78,SW,225,1.0,3.0,92,0.00,,,0.00,meteohub,2013-10-03 06:22:00,
2013-10-03 02:27:00,80.1,77.5,29.77,SE,135,2.0,3.0,92,0.00,,,0.00,meteohub,2013-10-03 06:27:00,
2013-10-03 02:32:00,79.9,77.4,29.78,South,180,3.0,4.0,92,0.00,,,0.00,meteohub,2013-10-03 06:32:00,
2013-10-03 02:37:00,79.9,77.0,29.78,WSW,248,1.0,4.0,91,0.00,,,0.00,meteohub,2013-10-03 06:37:00,
2013-10-03 02:42:00,79.9,77.4,29.77,SE,135,2.0,4.0,92,0.00,,,0.00,meteohub,2013-10-03 06:42:00,
2013-10-03 02:47:00,79.9,77.4,29.77,South,180,2.0,3.0,92,0.00,,,0.00,meteohub,2013-10-03 06:47:00,
2013-10-03 02:52:00,79.7,77.2,29.77,East,90,1.0,3.0,92,0.00,,,0.00,meteohub,2013-10-03 06:52:00,
2013-10-03 02:57:00,79.7,77.2,29.76,SE,135,2.0,3.0,92,0.00,,,0.00,meteohub,2013-10-03 06:57:00,
2013-10-03 03:02:00,79.7,77.5,29.76,SE,135,2.0,2.0,93,0.00,,,0.00,meteohub,2013-10-03 07:02:00,
2013-10-03 03:07:00,79.7,77.5,29.76,SW,225,1.0,2.0,93,0.00,,,0.00,meteohub,2013-10-03 07:07:00,
2013-10-03 03:12:00,79.7,77.5,29.76,South,180,2.0,2.0,93,0.00,,,0.00,meteohub,2013-10-03 07:12:00,
2013-10-03 03:17:00,79.7,77.5,29.76,SE,135,2.0,3.0,93,0.00,,,0.00,meteohub,2013-10-03 07:17:00,
2013-10-03 03:22:00,79.7,77.5,29.76,SW,225,2.0,3.0,93,0.00,,,0.00,meteohub,2013-10-03 07:22:00,
2013-10-03 03:27:00,79.7,77.2,29.76,South,180,0.0,3.0,92,0.00,,,0.00,meteohub,2013-10-03 07:27:00,
2013-10-03 03:32:00,79.7,77.5,29.76,South,180,0.0,4.0,93,0.00,,,0.00,meteohub,2013-10-03 07:32:00,
2013-10-03 03:37:00,79.7,77.5,29.76,SW,225,2.0,4.0,93,0.00,,,0.00,meteohub,2013-10-03 07:37:00,
2013-10-03 03:42:00,79.7,77.5,29.75,South,180,0.0,4.0,93,0.00,,,0.00,meteohub,2013-10-03 07:42:00,
2013-10-03 03:47:00,79.7,77.5,29.76,South,180,1.0,2.0,93,0.00,,,0.00,meteohub,2013-10-03 07:47:00,
2013-10-03 03:53:00,79.9,78.1,29.76,SW,225,3.0,3.0,94,0.00,,,0.00,meteohub,2013-10-03 07:53:00,
2013-10-03 03:57:00,79.7,77.9,29.76,SW,225,1.0,4.0,94,0.00,,,0.00,meteohub,2013-10-03 07:57:00,
2013-10-03 04:03:00,79.7,77.9,29.75,SSW,203,0.0,4.0,94,0.00,,,0.00,meteohub,2013-10-03 08:03:00,
2013-10-03 04:08:00,79.5,77.7,29.75,SSW,203,1.0,4.0,94,0.00,,,0.00,meteohub,2013-10-03 08:08:00,
2013-10-03 04:13:00,79.3,77.5,29.75,SW,225,0.0,1.0,94,0.00,,,0.00,meteohub,2013-10-03 08:13:00,
2013-10-03 04:18:00,79.3,77.5,29.75,South,180,1.0,1.0,94,0.00,,,0.00,meteohub,2013-10-03 08:18:00,
2013-10-03 04:23:00,79.3,77.5,29.75,SW,225,1.0,1.0,94,0.00,,,0.00,meteohub,2013-10-03 08:23:00,
2013-10-03 04:28:00,79.3,77.5,29.75,SE,135,1.0,1.0,94,0.00,,,0.00,meteohub,2013-10-03 08:28:00,
2013-10-03 04:33:00,79.3,77.5,29.75,South,180,4.0,4.0,94,0.00,,,0.00,meteohub,2013-10-03 08:33:00,
2013-10-03 04:38:00,79.2,77.4,29.74,SW,225,1.0,2.0,94,0.00,,,0.00,meteohub,2013-10-03 08:38:00,
2013-10-03 04:43:00,79.2,77.4,29.75,SSW,203,2.0,4.0,94,0.00,,,0.00,meteohub,2013-10-03 08:43:00,
2013-10-03 04:48:00,79.2,77.0,29.74,South,180,0.0,4.0,93,0.00,,,0.00,meteohub,2013-10-03 08:48:00,
2013-10-03 04:53:00,79.0,76.8,29.75,South,180,3.0,4.0,93,0.00,,,0.00,meteohub,2013-10-03 08:53:00,
2013-10-03 04:58:00,79.0,76.8,29.75,South,180,1.0,4.0,93,0.00,,,0.00,meteohub,2013-10-03 08:58:00,
2013-10-03 05:03:00,79.2,77.0,29.75,South,180,2.0,4.0,93,0.00,,,0.00,meteohub,2013-10-03 09:03:00,
2013-10-03 05:08:00,79.2,77.0,29.74,SSW,203,1.0,4.0,93,0.00,,,0.00,meteohub,2013-10-03 09:08:00,
2013-10-03 05:13:00,79.0,76.8,29.74,South,180,1.0,3.0,93,0.00,,,0.00,meteohub,2013-10-03 09:13:00,
2013-10-03 05:18:00,79.0,77.2,29.74,SW,225,2.0,3.0,94,0.00,,,0.00,meteohub,2013-10-03 09:18:00,
2013-10-03 05:23:00,79.0,77.2,29.74,South,180,0.0,3.0,94,0.00,,,0.00,meteohub,2013-10-03 09:23:00,
2013-10-03 05:28:00,79.0,77.2,29.74,SW,225,1.0,3.0,94,0.00,,,0.00,meteohub,2013-10-03 09:28:00,
2013-10-03 05:33:00,79.0,77.2,29.74,South,180,1.0,2.0,94,0.00,,,0.00,meteohub,2013-10-03 09:33:00,
2013-10-03 05:38:00,78.8,76.6,29.74,South,180,1.0,2.0,93,0.00,,,0.00,meteohub,2013-10-03 09:38:00,
2013-10-03 05:43:00,78.6,76.8,29.74,South,180,2.0,2.0,94,0.00,,,0.00,meteohub,2013-10-03 09:43:00,
2013-10-03 05:48:00,78.6,76.8,29.74,South,180,1.0,2.0,94,0.00,,,0.00,meteohub,2013-10-03 09:48:00,
2013-10-03 05:53:00,78.6,76.8,29.74,South,180,0.0,2.0,94,0.00,,,0.00,meteohub,2013-10-03 09:53:00,
2013-10-03 05:58:00,78.4,76.6,29.74,South,180,1.0,2.0,94,0.00,,,0.00,meteohub,2013-10-03 09:58:00,
2013-10-03 06:03:00,78.4,76.6,29.74,SW,225,1.0,4.0,94,0.00,,,0.00,meteohub,2013-10-03 10:03:00,
2013-10-03 06:08:00,78.6,76.8,29.74,South,180,1.0,4.0,94,0.00,,,0.00,meteohub,2013-10-03 10:08:00,
2013-10-03 06:13:00,78.6,76.8,29.74,South,180,1.0,4.0,94,0.00,,,0.00,meteohub,2013-10-03 10:13:00,
2013-10-03 06:18:00,78.4,76.6,29.74,SW,225,1.0,1.0,94,0.00,,,0.00,meteohub,2013-10-03 10:18:00,
2013-10-03 06:23:00,78.3,76.1,29.75,South,180,1.0,1.0,93,0.00,,,0.00,meteohub,2013-10-03 10:23:00,
2013-10-03 06:28:00,78.3,76.1,29.74,South,180,0.0,1.0,93,0.00,,,0.00,meteohub,2013-10-03 10:28:00,
2013-10-03 06:33:00,78.3,76.1,29.75,South,180,0.0,1.0,93,0.00,,,0.00,meteohub,2013-10-03 10:33:00,
2013-10-03 06:38:00,78.1,75.9,29.75,SE,135,0.0,1.0,93,0.00,,,0.00,meteohub,2013-10-03 10:38:00,
2013-10-03 06:43:00,78.1,75.9,29.75,SW,225,1.0,1.0,93,0.00,,,0.00,meteohub,2013-10-03 10:43:00,
2013-10-03 06:48:00,78.1,76.3,29.74,SSW,203,0.0,1.0,94,0.00,,,0.00,meteohub,2013-10-03 10:48:00,
2013-10-03 06:53:00,78.1,76.3,29.75,South,180,0.0,1.0,94,0.00,,,0.00,meteohub,2013-10-03 10:53:00,
2013-10-03 06:58:00,78.1,76.3,29.75,South,180,0.0,1.0,94,0.00,,,0.00,meteohub,2013-10-03 10:58:00,
2013-10-03 07:03:00,77.9,76.1,29.75,South,180,1.0,1.0,94,0.00,,,0.00,meteohub,2013-10-03 11:03:00,
2013-10-03 07:08:00,77.9,76.1,29.75,SW,225,0.0,1.0,94,0.00,,,0.00,meteohub,2013-10-03 11:08:00,
2013-10-03 07:13:00,77.9,76.1,29.75,SW,225,0.0,1.0,94,0.00,,,0.00,meteohub,2013-10-03 11:13:00,
2013-10-03 07:18:00,77.9,76.1,29.75,SW,225,0.0,1.0,94,0.00,,,0.00,meteohub,2013-10-03 11:18:00,
2013-10-03 07:23:00,77.7,75.9,29.75,SW,225,0.0,0.0,94,0.00,,,0.00,meteohub,2013-10-03 11:23:00,
2013-10-03 07:28:00,77.5,75.7,29.75,SW,225,0.0,0.0,94,0.00,,,0.00,meteohub,2013-10-03 11:28:00,
2013-10-03 07:33:00,77.5,75.9,29.75,SW,225,0.0,0.0,95,0.00,,,0.00,meteohub,2013-10-03 11:33:00,
2013-10-03 07:38:00,77.5,75.9,29.75,SW,225,0.0,0.0,95,0.00,,,0.00,meteohub,2013-10-03 11:38:00,
2013-10-03 07:43:00,77.4,75.7,29.75,SW,225,0.0,0.0,95,0.00,,,0.00,meteohub,2013-10-03 11:43:00,
2013-10-03 07:48:00,77.2,75.6,29.75,SW,225,0.0,0.0,95,0.00,,,0.00,meteohub,2013-10-03 11:48:00,
2013-10-03 07:53:00,77.0,75.4,29.75,SW,225,0.0,0.0,95,0.00,,,0.00,meteohub,2013-10-03 11:53:00,
2013-10-03 07:58:00,76.8,75.6,29.75,SW,225,0.0,0.0,96,0.00,,,0.00,meteohub,2013-10-03 11:58:00,
2013-10-03 08:03:00,76.8,75.6,29.76,SW,225,0.0,0.0,96,0.00,,,0.00,meteohub,2013-10-03 12:03:00,
2013-10-03 08:08:00,76.8,75.6,29.76,SW,225,0.0,0.0,96,0.00,,,0.00,meteohub,2013-10-03 12:08:00,
2013-10-03 08:13:00,76.6,75.4,29.75,SW,225,0.0,0.0,96,0.00,,,0.00,meteohub,2013-10-03 12:13:00,
2013-10-03 08:18:00,76.6,75.4,29.75,SW,225,0.0,0.0,96,0.00,,,0.00,meteohub,2013-10-03 12:18:00,
2013-10-03 08:23:00,76.6,75.4,29.75,SW,225,0.0,0.0,96,0.00,,,0.00,meteohub,2013-10-03 12:23:00,
2013-10-03 08:28:00,76.6,75.4,29.75,SW,225,0.0,0.0,96,0.00,,,0.00,meteohub,2013-10-03 12:28:00,
2013-10-03 08:33:00,76.8,75.6,29.76,SW,225,0.0,0.0,96,0.00,,,0.00,meteohub,2013-10-03 12:33:00,
2013-10-03 08:38:00,77.2,75.9,29.76,SW,225,0.0,0.0,96,0.00,,,0.00,meteohub,2013-10-03 12:38:00,
2013-10-03 08:43:00,77.7,76.5,29.76,SW,225,0.0,0.0,96,0.00,,,0.00,meteohub,2013-10-03 12:43:00,
2013-10-03 08:48:00,78.1,76.5,29.76,South,180,1.0,1.0,95,0.00,,,0.00,meteohub,2013-10-03 12:48:00,
2013-10-03 08:53:00,78.6,76.8,29.76,South,180,0.0,1.0,94,0.00,,,0.00,meteohub,2013-10-03 12:53:00,
2013-10-03 08:58:00,79.0,76.8,29.76,South,180,0.0,1.0,93,0.00,,,0.00,meteohub,2013-10-03 12:58:00,
2013-10-03 09:03:00,79.3,77.2,29.76,South,180,0.0,1.0,93,0.00,,,0.00,meteohub,2013-10-03 13:03:00,
2013-10-03 09:08:00,79.5,77.0,29.76,South,180,1.0,1.0,92,0.00,,,0.00,meteohub,2013-10-03 13:08:00,
2013-10-03 09:13:00,80.4,77.9,29.77,South,180,0.0,1.0,92,0.00,,,0.00,meteohub,2013-10-03 13:13:00,
2013-10-03 09:18:00,81.1,77.5,29.77,South,180,1.0,2.0,89,0.00,,,0.00,meteohub,2013-10-03 13:18:00,
2013-10-03 09:23:00,81.5,77.5,29.76,SW,225,0.0,2.0,88,0.00,,,0.00,meteohub,2013-10-03 13:23:00,
2013-10-03 09:28:00,81.9,77.9,29.77,South,180,1.0,3.0,88,0.00,,,0.00,meteohub,2013-10-03 13:28:00,
2013-10-03 09:33:00,82.0,78.1,29.77,SE,135,2.0,3.0,88,0.00,,,0.00,meteohub,2013-10-03 13:33:00,
2013-10-03 09:38:00,83.3,78.6,29.78,SW,225,4.0,4.0,86,0.00,,,0.00,meteohub,2013-10-03 13:38:00,
2013-10-03 09:43:00,84.9,79.2,29.78,South,180,1.0,3.0,83,0.00,,,0.00,meteohub,2013-10-03 13:43:00,
2013-10-03 09:48:00,86.0,79.5,29.78,South,180,1.0,4.0,81,0.00,,,0.00,meteohub,2013-10-03 13:48:00,
2013-10-03 09:54:00,87.1,80.2,29.78,SW,225,1.0,4.0,80,0.00,,,0.00,meteohub,2013-10-03 13:54:00,
2013-10-03 09:59:00,87.1,78.6,29.78,South,180,4.0,4.0,76,0.00,,,0.00,meteohub,2013-10-03 13:59:00,
2013-10-03 10:04:00,87.1,78.6,29.79,SW,225,5.0,6.0,76,0.00,,,0.00,meteohub,2013-10-03 14:04:00,
2013-10-03 10:09:00,86.4,77.5,29.79,SW,225,5.0,6.0,75,0.00,,,0.00,meteohub,2013-10-03 14:09:00,
2013-10-03 10:14:00,86.0,77.5,29.79,South,180,5.0,8.0,76,0.00,,,0.00,meteohub,2013-10-03 14:14:00,
2013-10-03 10:19:00,85.8,78.6,29.79,South,180,1.0,8.0,79,0.00,,,0.00,meteohub,2013-10-03 14:19:00,
2013-10-03 10:24:00,86.2,78.1,29.79,SW,225,8.0,8.0,77,0.00,,,0.00,meteohub,2013-10-03 14:24:00,
2013-10-03 10:29:00,86.4,78.3,29.79,SW,225,6.0,8.0,77,0.00,,,0.00,meteohub,2013-10-03 14:29:00,
2013-10-03 10:34:00,87.4,78.1,29.79,SE,135,4.0,8.0,74,0.00,,,0.00,meteohub,2013-10-03 14:34:00,
2013-10-03 10:39:00,87.8,77.2,29.79,SW,225,1.0,8.0,71,0.00,,,0.00,meteohub,2013-10-03 14:39:00,
2013-10-03 10:44:00,88.3,77.7,29.79,SW,225,2.0,6.0,71,0.00,,,0.00,meteohub,2013-10-03 14:44:00,
2013-10-03 10:49:00,87.8,78.4,29.79,SW,225,1.0,6.0,74,0.00,,,0.00,meteohub,2013-10-03 14:49:00,
2013-10-03 10:54:00,87.4,78.1,29.80,South,180,8.0,8.0,74,0.00,,,0.00,meteohub,2013-10-03 14:54:00,
2013-10-03 10:59:00,87.1,77.7,29.80,SSW,203,7.0,8.0,74,0.00,,,0.00,meteohub,2013-10-03 14:59:00,
2013-10-03 11:04:00,87.1,77.0,29.79,SW,225,6.0,8.0,72,0.00,,,0.00,meteohub,2013-10-03 15:04:00,
2013-10-03 11:09:00,86.4,77.5,29.80,SW,225,4.0,8.0,75,0.00,,,0.00,meteohub,2013-10-03 15:09:00,
2013-10-03 11:14:00,86.5,77.7,29.80,South,180,2.0,8.0,75,0.00,,,0.00,meteohub,2013-10-03 15:14:00,
2013-10-03 11:19:00,88.3,77.4,29.80,West,270,0.0,8.0,70,0.00,,,0.00,meteohub,2013-10-03 15:19:00,
2013-10-03 11:24:00,88.7,77.2,29.80,South,180,2.0,7.0,69,0.00,,,0.00,meteohub,2013-10-03 15:24:00,
2013-10-03 11:29:00,88.0,77.0,29.80,South,180,4.0,7.0,70,0.00,,,0.00,meteohub,2013-10-03 15:29:00,
2013-10-03 11:34:00,86.7,76.1,29.80,West,270,7.0,7.0,71,0.00,,,0.00,meteohub,2013-10-03 15:34:00,
2013-10-03 11:39:00,87.1,77.7,29.80,SW,225,4.0,7.0,74,0.00,,,0.00,meteohub,2013-10-03 15:39:00,
2013-10-03 11:44:00,86.9,76.8,29.80,SW,225,2.0,7.0,72,0.00,,,0.00,meteohub,2013-10-03 15:44:00,
2013-10-03 11:49:00,87.6,77.0,29.80,SW,225,5.0,8.0,71,0.00,,,0.00,meteohub,2013-10-03 15:49:00,
2013-10-03 11:54:00,87.4,76.8,29.80,SW,225,4.0,8.0,71,0.00,,,0.00,meteohub,2013-10-03 15:54:00,
2013-10-03 11:59:00,85.8,76.1,29.80,South,180,6.0,8.0,73,0.00,,,0.00,meteohub,2013-10-03 15:59:00,
2013-10-03 12:04:00,85.5,75.7,29.80,SW,225,8.0,8.0,73,0.00,,,0.00,meteohub,2013-10-03 16:04:00,
2013-10-03 12:09:00,86.5,77.7,29.80,SW,225,8.0,8.0,75,0.00,,,0.00,meteohub,2013-10-03 16:09:00,
2013-10-03 12:14:00,86.5,76.5,29.80,South,180,2.0,8.0,72,0.00,,,0.00,meteohub,2013-10-03 16:14:00,
2013-10-03 12:19:00,86.0,76.8,29.80,WSW,248,1.0,8.0,74,0.00,,,0.00,meteohub,2013-10-03 16:19:00,
2013-10-03 12:24:00,86.5,76.8,29.80,West,270,6.0,8.0,73,0.00,,,0.00,meteohub,2013-10-03 16:24:00,
2013-10-03 12:29:00,87.4,77.7,29.80,SW,225,8.0,8.0,73,0.00,,,0.00,meteohub,2013-10-03 16:29:00,
2013-10-03 12:34:00,85.8,77.0,29.80,SSW,203,4.0,8.0,75,0.00,,,0.00,meteohub,2013-10-03 16:34:00,
2013-10-03 12:39:00,87.4,77.4,29.80,South,180,4.0,8.0,72,0.00,,,0.00,meteohub,2013-10-03 16:39:00,
2013-10-03 12:44:00,89.2,78.6,29.80,South,180,1.0,8.0,71,0.00,,,0.00,meteohub,2013-10-03 16:44:00,
2013-10-03 12:49:00,90.3,78.3,29.80,SW,225,3.0,9.0,68,0.00,,,0.00,meteohub,2013-10-03 16:49:00,
2013-10-03 12:54:00,88.5,77.9,29.80,SW,225,4.0,9.0,71,0.00,,,0.00,meteohub,2013-10-03 16:54:00,
2013-10-03 12:59:00,89.8,77.7,29.80,SW,225,4.0,9.0,68,0.00,,,0.00,meteohub,2013-10-03 16:59:00,
2013-10-03 13:04:00,90.1,78.1,29.79,SW,225,7.0,7.0,68,0.00,,,0.00,meteohub,2013-10-03 17:04:00,
2013-10-03 13:09:00,91.6,78.1,29.80,SW,225,3.0,5.0,65,0.00,,,0.00,meteohub,2013-10-03 17:09:00,
2013-10-03 13:14:00,90.5,77.2,29.80,SW,225,1.0,8.0,65,0.00,,,0.00,meteohub,2013-10-03 17:14:00,
2013-10-03 13:19:00,88.5,77.5,29.80,SW,225,5.0,8.0,70,0.00,,,0.00,meteohub,2013-10-03 17:19:00,
2013-10-03 13:24:00,87.6,78.6,29.80,SE,135,8.0,8.0,75,0.00,,,0.00,meteohub,2013-10-03 17:24:00,
2013-10-03 13:29:00,89.2,78.6,29.79,South,180,8.0,8.0,71,0.00,,,0.00,meteohub,2013-10-03 17:29:00,
2013-10-03 13:34:00,88.7,78.1,29.80,SE,135,2.0,8.0,71,0.00,,,0.00,meteohub,2013-10-03 17:34:00,
2013-10-03 13:39:00,88.0,78.3,29.80,SE,135,1.0,8.0,73,0.00,,,0.00,meteohub,2013-10-03 17:39:00,
2013-10-03 13:44:00,87.1,77.7,29.80,SW,225,2.0,8.0,74,0.00,,,0.00,meteohub,2013-10-03 17:44:00,
2013-10-03 13:49:00,87.8,78.8,29.80,South,180,4.0,4.0,75,0.00,,,0.00,meteohub,2013-10-03 17:49:00,
2013-10-03 13:54:00,90.0,78.8,29.80,SW,225,8.0,8.0,70,0.00,,,0.00,meteohub,2013-10-03 17:54:00,
2013-10-03 13:59:00,91.6,79.5,29.80,NW,315,1.0,7.0,68,0.00,,,0.00,meteohub,2013-10-03 17:59:00,
2013-10-03 14:04:00,92.3,78.8,29.80,East,90,2.0,8.0,65,0.00,,,0.00,meteohub,2013-10-03 18:04:00,
2013-10-03 14:09:00,93.7,79.2,29.80,SW,225,2.0,8.0,63,0.00,,,0.00,meteohub,2013-10-03 18:09:00,
2013-10-03 14:14:00,93.9,79.0,29.79,SW,225,2.0,7.0,62,0.00,,,0.00,meteohub,2013-10-03 18:14:00,
2013-10-03 14:19:00,94.5,79.9,29.79,North,0,2.0,7.0,63,0.00,,,0.00,meteohub,2013-10-03 18:19:00,
2013-10-03 14:24:00,94.5,79.0,29.79,North,0,2.0,7.0,61,0.00,,,0.00,meteohub,2013-10-03 18:24:00,
2013-10-03 14:29:00,95.5,79.3,29.80,SE,135,1.0,2.0,60,0.00,,,0.00,meteohub,2013-10-03 18:29:00,
2013-10-03 14:34:00,95.5,79.3,29.79,South,180,3.0,3.0,60,0.00,,,0.00,meteohub,2013-10-03 18:34:00,
2013-10-03 14:39:00,94.5,78.4,29.79,South,180,4.0,4.0,60,0.00,,,0.00,meteohub,2013-10-03 18:39:00,
2013-10-03 14:44:00,93.7,78.8,29.79,South,180,4.0,4.0,62,0.00,,,0.00,meteohub,2013-10-03 18:44:00,
2013-10-03 14:49:00,91.0,78.6,29.79,SW,225,1.0,4.0,67,0.00,,,0.00,meteohub,2013-10-03 18:49:00,
2013-10-03 14:54:00,91.9,78.4,29.79,East,90,0.0,8.0,65,0.00,,,0.00,meteohub,2013-10-03 18:54:00,
2013-10-03 14:59:00,92.1,78.3,29.79,SW,225,2.0,8.0,64,0.00,,,0.00,meteohub,2013-10-03 18:59:00,
2013-10-03 15:04:00,91.2,78.3,29.79,SW,225,2.0,8.0,66,0.00,,,0.00,meteohub,2013-10-03 19:04:00,
2013-10-03 15:09:00,91.0,79.0,29.79,WSW,248,4.0,4.0,68,0.00,,,0.00,meteohub,2013-10-03 19:09:00,
2013-10-03 15:14:00,90.5,78.4,29.79,SE,135,1.0,4.0,68,0.00,,,0.00,meteohub,2013-10-03 19:14:00,
2013-10-03 15:19:00,90.3,78.8,29.79,SE,135,0.0,4.0,69,0.00,,,0.00,meteohub,2013-10-03 19:19:00,
2013-10-03 15:24:00,90.7,78.6,29.78,South,180,4.0,6.0,68,0.00,,,0.00,meteohub,2013-10-03 19:24:00,
2013-10-03 15:29:00,90.5,78.4,29.78,SE,135,1.0,6.0,68,0.00,,,0.00,meteohub,2013-10-03 19:29:00,
2013-10-03 15:34:00,92.5,79.9,29.78,East,90,1.0,6.0,67,0.00,,,0.00,meteohub,2013-10-03 19:34:00,
2013-10-03 15:39:00,94.5,79.0,29.77,South,180,1.0,5.0,61,0.00,,,0.00,meteohub,2013-10-03 19:39:00,
2013-10-03 15:44:00,95.5,79.0,29.77,SW,225,2.0,5.0,59,0.00,,,0.00,meteohub,2013-10-03 19:44:00,
2013-10-03 15:49:00,94.8,78.8,29.77,East,90,1.0,4.0,60,0.00,,,0.00,meteohub,2013-10-03 19:49:00,
2013-10-03 15:54:00,94.3,79.2,29.77,West,270,5.0,5.0,62,0.00,,,0.00,meteohub,2013-10-03 19:54:00,
2013-10-03 15:59:00,94.1,78.6,29.77,East,90,1.0,4.0,61,0.00,,,0.00,meteohub,2013-10-03 19:59:00,
2013-10-03 16:04:00,94.1,78.6,29.77,East,90,1.0,5.0,61,0.00,,,0.00,meteohub,2013-10-03 20:04:00,
2013-10-03 16:09:00,94.5,79.0,29.76,SW,225,1.0,5.0,61,0.00,,,0.00,meteohub,2013-10-03 20:09:00,
2013-10-03 16:15:00,93.9,78.4,29.77,East,90,1.0,4.0,61,0.00,,,0.00,meteohub,2013-10-03 20:15:00,
2013-10-03 16:19:00,93.2,77.7,29.77,SE,135,4.0,4.0,61,0.00,,,0.00,meteohub,2013-10-03 20:19:00,
2013-10-03 16:24:00,92.1,78.3,29.77,South,180,2.0,4.0,64,0.00,,,0.00,meteohub,2013-10-03 20:24:00,
2013-10-03 16:29:00,91.0,77.2,29.77,SE,135,3.0,6.0,64,0.00,,,0.00,meteohub,2013-10-03 20:29:00,
2013-10-03 16:34:00,90.3,77.0,29.77,South,180,1.0,8.0,65,0.00,,,0.00,meteohub,2013-10-03 20:34:00,
2013-10-03 16:40:00,90.0,77.9,29.77,East,90,2.0,8.0,68,0.00,,,0.00,meteohub,2013-10-03 20:40:00,
2013-10-03 16:45:00,89.4,77.5,29.77,South,180,3.0,8.0,68,0.00,,,0.00,meteohub,2013-10-03 20:45:00,
2013-10-03 16:49:00,88.7,77.7,29.76,South,180,1.0,7.0,70,0.00,,,0.00,meteohub,2013-10-03 20:49:00,
2013-10-03 16:55:00,87.8,76.8,29.76,NW,315,2.0,6.0,70,0.00,,,0.00,meteohub,2013-10-03 20:55:00,
2013-10-03 17:00:00,87.6,77.5,29.76,SE,135,1.0,4.0,72,0.00,,,0.00,meteohub,2013-10-03 21:00:00,
2013-10-03 17:05:00,89.6,78.4,29.76,SE,135,1.0,7.0,70,0.00,,,0.00,meteohub,2013-10-03 21:05:00,
2013-10-03 17:10:00,90.3,78.8,29.76,SE,135,1.0,7.0,69,0.00,,,0.00,meteohub,2013-10-03 21:10:00,
2013-10-03 17:15:00,90.7,78.6,29.76,South,180,1.0,7.0,68,0.00,,,0.00,meteohub,2013-10-03 21:15:00,
2013-10-03 17:20:00,89.1,78.1,29.76,South,180,1.0,4.0,70,0.00,,,0.00,meteohub,2013-10-03 21:20:00,
2013-10-03 17:25:00,88.3,78.1,29.76,SE,135,1.0,3.0,72,0.00,,,0.00,meteohub,2013-10-03 21:25:00,
2013-10-03 17:30:00,88.9,78.6,29.75,South,180,2.0,3.0,72,0.00,,,0.00,meteohub,2013-10-03 21:30:00,
2013-10-03 17:35:00,88.5,77.5,29.75,West,270,2.0,4.0,70,0.00,,,0.00,meteohub,2013-10-03 21:35:00,
2013-10-03 17:40:00,87.1,78.3,29.75,North,0,1.0,4.0,75,0.00,,,0.00,meteohub,2013-10-03 21:40:00,
2013-10-03 17:45:00,87.6,78.6,29.75,East,90,2.0,6.0,75,0.00,,,0.00,meteohub,2013-10-03 21:45:00,
2013-10-03 17:50:00,88.0,77.4,29.75,NE,45,1.0,6.0,71,0.00,,,0.00,meteohub,2013-10-03 21:50:00,
2013-10-03 17:55:00,88.0,77.9,29.75,SW,225,4.0,6.0,72,0.00,,,0.00,meteohub,2013-10-03 21:55:00,
2013-10-03 18:00:00,87.3,77.2,29.75,SW,225,1.0,6.0,72,0.00,,,0.00,meteohub,2013-10-03 22:00:00,
2013-10-03 18:05:00,87.3,76.6,29.75,SE,135,1.0,4.0,71,0.00,,,0.00,meteohub,2013-10-03 22:05:00,
2013-10-03 18:10:00,87.3,77.2,29.75,SSW,203,2.0,4.0,72,0.00,,,0.00,meteohub,2013-10-03 22:10:00,
2013-10-03 18:15:00,87.3,77.5,29.75,SE,135,3.0,3.0,73,0.00,,,0.00,meteohub,2013-10-03 22:15:00,
2013-10-03 18:20:00,87.6,77.9,29.75,SW,225,1.0,3.0,73,0.00,,,0.00,meteohub,2013-10-03 22:20:00,
2013-10-03 18:25:00,87.3,77.5,29.75,South,180,1.0,3.0,73,0.00,,,0.00,meteohub,2013-10-03 22:25:00,
2013-10-03 18:30:00,87.3,77.5,29.75,SW,225,2.0,4.0,73,0.00,,,0.00,meteohub,2013-10-03 22:30:00,
2013-10-03 18:35:00,86.4,77.0,29.76,SSW,203,3.0,7.0,74,0.00,,,0.00,meteohub,2013-10-03 22:35:00,
2013-10-03 18:40:00,86.2,77.4,29.76,SE,135,0.0,7.0,75,0.00,,,0.00,meteohub,2013-10-03 22:40:00,
2013-10-03 18:45:00,85.8,77.4,29.76,SE,135,2.0,4.0,76,0.00,,,0.00,meteohub,2013-10-03 22:45:00,
2013-10-03 18:50:00,85.1,77.0,29.76,South,180,2.0,4.0,77,0.00,,,0.00,meteohub,2013-10-03 22:50:00,
2013-10-03 18:55:00,84.6,76.5,29.75,NE,45,0.0,4.0,77,0.00,,,0.00,meteohub,2013-10-03 22:55:00,
2013-10-03 19:00:00,84.7,77.2,29.75,East,90,2.0,4.0,78,0.00,,,0.00,meteohub,2013-10-03 23:00:00,
2013-10-03 19:05:00,84.7,77.2,29.75,SW,225,4.0,4.0,78,0.00,,,0.00,meteohub,2013-10-03 23:05:00,
2013-10-03 19:10:00,84.6,77.0,29.75,NE,45,1.0,4.0,78,0.00,,,0.00,meteohub,2013-10-03 23:10:00,
2013-10-03 19:15:00,84.4,77.5,29.76,East,90,2.0,4.0,80,0.00,,,0.00,meteohub,2013-10-03 23:15:00,
2013-10-03 19:20:00,84.0,77.9,29.75,South,180,2.0,4.0,82,0.00,,,0.00,meteohub,2013-10-03 23:20:00,
2013-10-03 19:25:00,83.5,77.4,29.75,South,180,0.0,6.0,82,0.00,,,0.00,meteohub,2013-10-03 23:25:00,
2013-10-03 19:30:00,83.5,77.7,29.75,East,90,2.0,6.0,83,0.00,,,0.00,meteohub,2013-10-03 23:30:00,
2013-10-03 19:35:00,83.3,77.5,29.75,NE,45,3.0,4.0,83,0.00,,,0.00,meteohub,2013-10-03 23:35:00,
2013-10-03 19:40:00,83.1,77.4,29.75,South,180,0.0,4.0,83,0.00,,,0.00,meteohub,2013-10-03 23:40:00,
2013-10-03 19:45:00,82.8,77.4,29.75,NW,315,3.0,3.0,84,0.00,,,0.00,meteohub,2013-10-03 23:45:00,
2013-10-03 19:50:00,82.2,76.5,29.75,SW,225,1.0,3.0,83,0.00,,,0.00,meteohub,2013-10-03 23:50:00,
2013-10-03 19:55:00,82.0,76.6,29.75,SE,135,0.0,3.0,84,0.00,,,0.00,meteohub,2013-10-03 23:55:00,
2013-10-03 20:00:00,81.7,76.6,29.75,SW,225,0.0,3.0,85,0.00,,,0.00,meteohub,2013-10-04 00:00:00,
2013-10-03 20:05:00,81.5,76.5,29.75,South,180,0.0,2.0,85,0.00,,,0.00,meteohub,2013-10-04 00:05:00,
2013-10-03 20:10:00,81.1,76.5,29.75,SW,225,1.0,2.0,86,0.00,,,0.00,meteohub,2013-10-04 00:10:00,
2013-10-03 20:15:00,81.0,76.6,29.75,SW,225,1.0,3.0,87,0.00,,,0.00,meteohub,2013-10-04 00:15:00,
2013-10-03 20:20:00,81.0,76.6,29.75,SW,225,1.0,3.0,87,0.00,,,0.00,meteohub,2013-10-04 00:20:00,
2013-10-03 20:25:00,81.0,76.6,29.75,SE,135,3.0,3.0,87,0.00,,,0.00,meteohub,2013-10-04 00:25:00,
2013-10-03 20:30:00,80.8,76.5,29.75,SSW,203,1.0,3.0,87,0.00,,,0.00,meteohub,2013-10-04 00:30:00,
2013-10-03 20:35:00,80.8,76.5,29.76,South,180,0.0,3.0,87,0.00,,,0.00,meteohub,2013-10-04 00:35:00,
2013-10-03 20:40:00,80.6,76.3,29.75,SE,135,2.0,3.0,87,0.00,,,0.00,meteohub,2013-10-04 00:40:00,
2013-10-03 20:45:00,80.2,76.6,29.75,SE,135,0.0,2.0,89,0.00,,,0.00,meteohub,2013-10-04 00:45:00,
2013-10-03 20:50:00,80.2,76.6,29.75,SE,135,0.0,2.0,89,0.00,,,0.00,meteohub,2013-10-04 00:50:00,
2013-10-03 20:55:00,80.2,76.6,29.76,South,180,1.0,2.0,89,0.00,,,0.00,meteohub,2013-10-04 00:55:00,
2013-10-03 21:00:00,80.2,76.6,29.75,SW,225,1.0,2.0,89,0.00,,,0.00,meteohub,2013-10-04 01:00:00,
2013-10-03 21:05:00,80.1,76.5,29.75,South,180,0.0,2.0,89,0.00,,,0.00,meteohub,2013-10-04 01:05:00,
2013-10-03 21:10:00,80.1,76.5,29.75,South,180,0.0,1.0,89,0.00,,,0.00,meteohub,2013-10-04 01:10:00,
2013-10-03 21:15:00,79.9,76.6,29.75,SW,225,1.0,2.0,90,0.00,,,0.00,meteohub,2013-10-04 01:15:00,
2013-10-03 21:20:00,79.9,76.6,29.76,SW,225,1.0,2.0,90,0.00,,,0.00,meteohub,2013-10-04 01:20:00,
2013-10-03 21:25:00,79.9,76.3,29.76,SW,225,1.0,2.0,89,0.00,,,0.00,meteohub,2013-10-04 01:25:00,
2013-10-03 21:30:00,79.7,76.1,29.75,SSE,158,1.0,2.0,89,0.00,,,0.00,meteohub,2013-10-04 01:30:00,
2013-10-03 21:35:00,79.5,76.3,29.76,SSW,203,1.0,1.0,90,0.00,,,0.00,meteohub,2013-10-04 01:35:00,
2013-10-03 21:40:00,79.3,76.1,29.76,South,180,0.0,1.0,90,0.00,,,0.00,meteohub,2013-10-04 01:40:00,
2013-10-03 21:45:00,79.3,76.1,29.76,South,180,0.0,1.0,90,0.00,,,0.00,meteohub,2013-10-04 01:45:00,
2013-10-03 21:50:00,79.2,75.9,29.75,SE,135,0.0,2.0,90,0.00,,,0.00,meteohub,2013-10-04 01:50:00,
2013-10-03 21:55:00,79.2,75.9,29.76,SE,135,0.0,2.0,90,0.00,,,0.00,meteohub,2013-10-04 01:55:00,
2013-10-03 22:00:00,79.3,76.5,29.76,South,180,0.0,2.0,91,0.00,,,0.00,meteohub,2013-10-04 02:00:00,
2013-10-03 22:05:00,79.3,76.5,29.76,South,180,0.0,0.0,91,0.00,,,0.00,meteohub,2013-10-04 02:05:00,
2013-10-03 22:10:00,79.9,77.0,29.76,East,90,0.0,1.0,91,0.00,,,0.00,meteohub,2013-10-04 02:10:00,
2013-10-03 22:15:00,80.1,77.2,29.76,SW,225,2.0,4.0,91,0.00,,,0.00,meteohub,2013-10-04 02:15:00,
2013-10-03 22:20:00,80.2,77.0,29.77,South,180,2.0,4.0,90,0.00,,,0.00,meteohub,2013-10-04 02:20:00,
2013-10-03 22:25:00,80.2,77.0,29.77,SE,135,2.0,4.0,90,0.00,,,0.00,meteohub,2013-10-04 02:25:00,
2013-10-03 22:30:00,80.2,77.0,29.77,SW,225,2.0,4.0,90,0.00,,,0.00,meteohub,2013-10-04 02:30:00,
2013-10-03 22:35:00,80.2,77.0,29.78,South,180,2.0,3.0,90,0.00,,,0.00,meteohub,2013-10-04 02:35:00,
2013-10-03 22:40:00,80.1,76.8,29.78,South,180,2.0,2.0,90,0.00,,,0.00,meteohub,2013-10-04 02:40:00,
2013-10-03 22:45:00,80.1,76.8,29.78,SW,225,0.0,2.0,90,0.00,,,0.00,meteohub,2013-10-04 02:45:00,
2013-10-03 22:50:00,80.1,76.8,29.78,ESE,113,0.0,2.0,90,0.00,,,0.00,meteohub,2013-10-04 02:50:00,
2013-10-03 22:55:00,79.9,76.6,29.78,SW,225,1.0,2.0,90,0.00,,,0.00,meteohub,2013-10-04 02:55:00,
2013-10-03 23:00:00,79.7,76.5,29.77,SW,225,0.0,2.0,90,0.00,,,0.00,meteohub,2013-10-04 03:00:00,
2013-10-03 23:05:00,79.7,76.5,29.78,South,180,2.0,2.0,90,0.00,,,0.00,meteohub,2013-10-04 03:05:00,
2013-10-03 23:10:00,79.7,76.5,29.78,South,180,1.0,3.0,90,0.00,,,0.00,meteohub,2013-10-04 03:10:00,
2013-10-03 23:15:00,79.9,76.6,29.77,South,180,1.0,3.0,90,0.00,,,0.00,meteohub,2013-10-04 03:15:00,
2013-10-03 23:20:00,80.1,76.5,29.78,South,180,0.0,3.0,89,0.00,,,0.00,meteohub,2013-10-04 03:20:00,
2013-10-03 23:25:00,79.9,76.3,29.78,SE,135,1.0,3.0,89,0.00,,,0.00,meteohub,2013-10-04 03:25:00,
2013-10-03 23:30:00,79.9,76.3,29.78,South,180,1.0,3.0,89,0.00,,,0.00,meteohub,2013-10-04 03:30:00,
2013-10-03 23:35:00,79.9,76.3,29.78,South,180,2.0,2.0,89,0.00,,,0.00,meteohub,2013-10-04 03:35:00,
2013-10-03 23:41:00,79.9,76.3,29.78,West,270,1.0,2.0,89,0.00,,,0.00,meteohub,2013-10-04 03:41:00,
2013-10-03 23:45:00,79.7,76.5,29.79,SE,135,4.0,4.0,90,0.00,,,0.00,meteohub,2013-10-04 03:45:00,
2013-10-03 23:51:00,79.9,76.6,29.78,West,270,1.0,4.0,90,0.00,,,0.00,meteohub,2013-10-04 03:51:00,
2013-10-03 23:56:00,80.1,76.8,29.78,South,180,1.0,4.0,90,0.00,,,0.00,meteohub,2013-10-04 03:56:00,